Find Starlink 32036

NORAD ID: 60141 Int'l Des: 2024-120 Owner: SPXS Country: US Constellation: starlink operational
LEOCIRCULAR

リアルタイム位置

3D地球を読み込み中...

Starlink 32036について

説明を読み込み中...

次回通過

Passes for default location (London). Set your location on the main map for personalized predictions.

高度履歴

Loading altitude history...

軌道要素

1 60141U 24120G 26127.02123485 -.00021921 00000-0 -72846-3 0 9991
2 60141 53.1607 49.2186 0000291 40.0330 320.0692 15.30276842105385
Epoch: May 7, 2026 • Age: 9 hours

現在のステータス

高度 493.0 km
速度 7.62 km/s
衛星直下点 -51.48°S, 30.86°W
打ち上げ日 Jun 27, 2024
運用期間 1.8 years
タイプ internet

技術仕様

分類 Payload
質量 730.00 kg
乾燥質量 700.00 kg
総質量 730.00 kg
長さ 0.30 m
直径 4.10 m
スパン 29.00 m
形状 Box + pan
製造者 SPXS
バスタイプ Starlink V2M
フェーズステータス In Orbit
所有者/国 SPXS/US

Most Searched